Temp
49 39 37 41 44 43 42 38 36 42 49 45 44 44 49 55 55 54 58 60 68 71 71 70 69 70 70 71 69 66 66 67 69 67 60 58 56 57 56 53 55 56 57 57
42 36 46 47 46 43 41 37 36 43 48 45 43 43 49 53 54 57 58 60 61 66 69 68 67 68 69 68 69 65 65 67 68 68 62 58 57 56 51 50 51 52 53 53
36 42 49 45 42 40 40 37 37 37 43 45 41 37 42 49 54 56 59 60 63 62 63 66 64 65 67 67 68 65 65 66 68 67 62 56 54 52 48 47 47 49 50 49
40 48 45 42 39 42 33 44 42 39 35 23 41 22 37 44 47 52 56 58 60 62 62 63 62 62 64 66 68 65 66 66 67 65 59 54 53 50 49 47 46 44 45 46
37 41 40 38 40 44 37 45 41 39 33 31 33 25 33 45 43 48 54 58 60 62 63 62 61 61 62 65 66 66 64 66 66 64 57 55 53 51 48 44 42 40 41 42
41 48 45 43 46 44 46 40 38 38 33 22 31 28 28 38 44 49 55 58 61 62 63 64 63 62 62 65 65 65 64 64 64 59 57 57 50 46 43 41 39 38 38 39
37 42 46 47 39 44 42 33 22 14 22 16 39 34 33 45 49 51 53 55 58 61 63 62 63 60 61 63 63 63 63 62 58 58 55 51 48 46 43 41 39 37 37 37
25 21 41 46 39 35 35 31 24 15 12 22 36 23 35 49 55 55 55 53 54 54 56 60 62 60 61 62 62 62 62 60 56 56 52 48 46 44 42 41 39 37 36 36
25 27 42 44 46 42 32 27 37 26 26 22 26 35 45 44 44 45 44 48 49 51 54 54 59 61 60 61 61 62 60 54 51 47 45 44 43 42 40 38 38 36 36 36
33 22 38 43 44 43 34 37 26 29 18 17 22 28 32 35 38 41 40 41 44 47 49 51 55 59 59 58 54 53 50 46 45 44 43 42 40 39 38 37 36 35 35 35
36 30 30 37 36 34 33 30 31 31 29 22 20 23 38 36 38 38 39 40 42 43 44 46 52 53 50 48 47 45 44 43 41 40 39 38 37 37 37 35 34 34 33 32
36 29 21 28 40 44 39 33 33 25 24 29 27 27 42 42 41 40 38 39 40 43 42 45 46 46 45 43 43 42 41 39 39 38 37 36 36 36 34 33 32 33 32 32
33 25 18 24 34 39 35 37 37 32 31 26 24 28 44 41 38 38 36 36 38 39 39 40 42 42 42 41 40 38 38 37 37 36 35 34 33 33 33 32 32 32 32 32
36 28 20 19 26 31 27 31 34 31 27 24 27 28 36 34 33 34 34 35 36 37 37 38 38 38 38 37 37 36 35 36 35 35 35 34 33 32 32 32 32 31 31 33
34 22 24 27 30 31 29 28 31 31 29 24 27 26 32 31 32 32 33 34 34 34 35 34 35 35 35 34 33 33 34 33 34 34 34 32 32 32 31 30 30 32 33 33
34 22 27 23 31 32 29 32 33 32 30 30 29 29 37 34 36 33 32 32 32 32 33 33 33 33 33 33 32 33 33 33 35 33 32 32 31 30 29 31 32 32 32 32
27 26 22 17 30 30 24 30 31 31 31 29 24 28 32 33 33 32 32 32 32 32 32 32 33 32 33 33 33 32 32 34 34 33 32 30 29 29 32 32 32 32 31 32
25 24 24 18 27 19 33 40 37 33 32 32 31 32 34 34 36 34 33 32 32 32 32 32 32 32 33 33 33 33 34 33 32 30 29 29 29 31 31 31 31 30 31 30
30 26 18 21 19 29 32 35 33 29 31 36 33 35 34 38 40 34 34 34 32 32 32 32 32 32 32 32 32 32 31 31 29 28 29 31 31 30 30 30 29 29 29 29
32 31 25 20 18 15 30 36 40 37 28 38 36 35 33 36 30 31 33 34 33 33 33 32 32 32 31 31 32 31 29 29 29 31 30 31 31 30 29 29 29 29 29 30
21 20 19 22 20 23 32 36 39 26 30 37 37 36 34 32 33 35 34 33 33 33 32 32 32 30 29 31 31 30 30 29 30 31 30 30 30 29 29 28 28 28 28 28
17 13 16 25 21 15 35 36 32 35 36 36 36 35 34 36 36 35 33 32 32 32 32 31 30 30 30 31 32 30 28 30 30 30 29 27 27 29 28 26 27 27 26 24
16 27 23 26 26 34 34 34 35 35 33 34 33 33 35 35 33 33 32 31 31 31 31 31 30 29 31 31 30 28 28 29 28 28 26 26 27 27 28 26 25 24 24 22
28 30 25 27 30 32 34 34 32 32 32 33 33 33 34 33 32 31 31 30 30 30 29 30 29 28 27 28 28 27 28 28 27 26 25 25 24 24 24 25 25 23 20 19
25 27 21 24 31 32 32 31 31 32 32 31 32 31 29 31 30 31 30 29 28 28 28 29 28 27 26 27 26 27 27 28 26 24 23 23 23 22 21 23 21 20 21 22
26 25 26 24 33 32 31 31 30 30 28 28 28 28 29 29 29 29 27 27 27 27 27 27 26 26 25 26 26 26 27 27 25 23 23 23 22 20 20 19 18 29 28 29
MSLP
1016.81 1017.08 1016.51 1016.43 1016.38 1016.15 1015.74 1015.15 1014.32 1013.57 1012.76 1011.77 1010.67 1009.12 1008.87 1008.08 1007.09 1006.46 1005.68 1005.05 1004.09 1003.65 1003.95 1004.74 1005.90 1007.10 1008.06 1008.67 1009.28 1010.33 1011.23 1012.10 1012.72 1013.38 1014.41 1015.21 1015.95 1016.83 1017.55 1018.10 1018.22 1018.54 1018.98 1019.29
1017.22 1016.81 1016.59 1016.65 1016.39 1016.10 1015.82 1015.18 1014.33 1013.44 1012.74 1012.21 1011.37 1009.11 1008.84 1008.22 1007.05 1006.09 1005.72 1005.07 1004.51 1004.02 1003.35 1004.04 1005.05 1006.17 1007.35 1008.08 1008.64 1009.66 1010.52 1011.47 1012.13 1012.70 1013.97 1014.89 1015.82 1016.95 1018.16 1018.63 1019.06 1019.17 1019.29 1019.69
1017.96 1017.28 1016.78 1016.63 1016.31 1016.09 1015.67 1015.08 1014.40 1013.87 1013.16 1012.47 1011.82 1008.76 1007.99 1007.04 1006.28 1005.91 1004.89 1004.68 1004.32 1004.15 1004.26 1004.47 1004.57 1005.39 1006.54 1007.40 1008.09 1008.97 1009.55 1010.66 1011.39 1012.20 1013.49 1014.94 1016.11 1017.53 1018.69 1019.21 1019.49 1019.91 1019.88 1020.43
1017.91 1017.04 1016.77 1016.51 1016.31 1016.07 1015.57 1014.87 1014.59 1014.28 1014.03 1013.56 1012.89 1009.80 1008.20 1007.11 1005.47 1004.81 1004.56 1004.06 1004.19 1003.64 1003.82 1004.24 1004.96 1005.23 1005.66 1006.80 1007.69 1008.49 1009.21 1010.23 1011.02 1011.71 1012.92 1014.11 1015.43 1016.84 1018.09 1019.19 1019.86 1020.37 1020.68 1021.20
1018.18 1017.20 1016.87 1016.47 1016.16 1016.03 1015.57 1015.11 1015.04 1014.78 1014.62 1014.14 1013.51 1012.40 1007.16 1005.94 1005.09 1004.35 1003.57 1003.15 1003.26 1003.27 1003.27 1003.43 1004.25 1005.07 1005.66 1006.12 1007.13 1008.04 1008.84 1009.62 1010.41 1011.28 1012.55 1013.73 1015.22 1016.47 1017.86 1019.32 1020.24 1020.98 1021.42 1021.90
1018.33 1017.34 1016.81 1016.16 1016.12 1015.97 1015.45 1015.42 1014.99 1014.60 1014.73 1014.31 1012.02 1012.10 1007.01 1005.78 1004.54 1003.34 1002.95 1002.32 1002.01 1002.11 1002.24 1002.52 1003.18 1004.12 1005.02 1005.80 1006.54 1007.41 1008.22 1009.00 1009.85 1011.00 1012.51 1013.23 1014.62 1016.14 1017.86 1019.31 1020.40 1021.52 1022.09 1022.56
1018.86 1017.18 1016.43 1016.55 1016.26 1015.63 1015.59 1016.31 1015.77 1015.18 1014.85 1013.44 1011.37 1010.74 1007.92 1005.42 1004.66 1003.80 1003.18 1002.72 1001.73 1001.37 1001.56 1001.91 1002.21 1003.17 1004.18 1004.92 1006.06 1006.96 1007.56 1008.47 1009.72 1010.79 1012.15 1013.46 1014.47 1015.59 1017.13 1018.67 1020.02 1021.37 1022.32 1023.07
1020.50 1018.39 1017.20 1016.78 1017.12 1016.60 1016.21 1017.10 1016.78 1015.78 1014.77 1013.06 1011.73 1009.49 1006.52 1004.79 1003.90 1003.55 1003.91 1003.41 1002.89 1002.33 1002.26 1001.93 1001.32 1002.34 1003.07 1004.01 1005.04 1006.48 1007.38 1008.19 1009.67 1010.82 1012.24 1013.79 1015.09 1016.24 1017.49 1018.88 1020.03 1021.35 1022.54 1023.44
1021.86 1019.49 1018.08 1017.34 1016.47 1016.79 1016.89 1017.17 1016.62 1016.09 1014.87 1013.94 1011.12 1008.32 1006.10 1006.22 1006.07 1005.91 1005.74 1005.09 1004.35 1003.71 1002.89 1002.23 1001.94 1001.06 1002.40 1003.41 1004.30 1005.53 1007.02 1008.58 1009.97 1011.21 1012.77 1014.20 1015.49 1016.65 1017.98 1019.27 1020.33 1021.63 1022.80 1023.23
1022.86 1020.97 1018.55 1017.18 1016.88 1016.52 1017.30 1017.36 1016.63 1016.19 1015.16 1013.43 1010.79 1009.28 1008.23 1008.11 1007.81 1007.38 1006.88 1006.47 1005.67 1004.89 1003.93 1003.08 1002.34 1000.99 1002.01 1003.64 1005.12 1006.31 1007.44 1008.83 1010.29 1011.49 1013.27 1014.61 1016.20 1017.23 1018.61 1019.65 1021.09 1021.97 1023.06 1023.56
1023.35 1022.74 1019.72 1018.56 1017.06 1016.75 1016.96 1017.18 1017.30 1016.69 1015.68 1013.98 1011.75 1009.89 1009.56 1009.41 1008.94 1008.43 1007.98 1007.43 1006.70 1005.79 1004.98 1003.78 1002.96 1002.37 1003.03 1004.87 1006.13 1007.55 1008.54 1009.46 1010.96 1011.88 1013.75 1015.15 1016.58 1017.88 1018.90 1020.78 1021.61 1022.88 1023.66 1024.35
1023.94 1023.46 1021.58 1019.22 1016.65 1016.35 1016.94 1017.32 1017.39 1016.77 1015.40 1014.53 1013.19 1010.15 1009.54 1009.44 1009.46 1009.16 1008.39 1007.86 1007.14 1006.32 1005.57 1004.04 1003.12 1003.53 1004.32 1006.03 1007.29 1008.22 1009.27 1010.38 1011.52 1012.53 1014.34 1015.63 1017.16 1018.22 1019.17 1021.02 1022.62 1023.31 1024.33 1024.21
1024.73 1023.93 1022.40 1019.45 1017.71 1017.17 1017.41 1017.22 1017.25 1017.08 1015.71 1014.13 1013.32 1010.47 1009.30 1009.97 1009.83 1009.41 1008.87 1008.29 1007.56 1006.91 1006.12 1005.67 1004.47 1004.74 1005.70 1007.26 1008.41 1009.38 1010.43 1011.44 1012.35 1013.29 1014.52 1016.23 1017.28 1018.70 1020.69 1021.47 1022.15 1023.68 1024.30 1025.55
1025.34 1024.49 1023.67 1022.38 1020.44 1019.72 1018.53 1017.39 1017.13 1016.94 1015.94 1015.44 1013.66 1012.25 1010.55 1011.01 1010.52 1009.72 1009.14 1008.83 1008.09 1007.59 1006.94 1006.83 1006.71 1006.58 1007.30 1008.62 1009.52 1010.56 1011.86 1012.88 1012.76 1013.89 1015.89 1016.75 1018.09 1019.41 1021.17 1021.75 1022.81 1023.92 1025.46 1025.75
1025.43 1024.56 1023.79 1022.51 1021.09 1020.02 1018.93 1018.07 1017.21 1016.74 1016.90 1016.36 1014.64 1013.72 1012.41 1012.34 1011.48 1010.81 1009.90 1009.13 1008.77 1008.51 1008.14 1008.01 1008.59 1008.38 1009.06 1009.84 1011.23 1012.30 1013.45 1013.49 1014.58 1014.87 1016.37 1017.75 1019.63 1020.53 1021.64 1022.85 1023.86 1024.64 1025.52 1026.36
1025.84 1024.81 1023.72 1021.64 1019.95 1019.40 1018.46 1017.77 1017.37 1016.85 1017.13 1016.26 1015.30 1013.96 1013.54 1012.54 1011.80 1011.22 1010.33 1009.71 1009.39 1009.24 1009.02 1009.32 1009.75 1009.95 1010.63 1011.35 1012.62 1013.82 1014.13 1014.82 1015.27 1016.83 1017.61 1018.76 1020.36 1021.30 1022.82 1023.91 1024.49 1025.16 1025.99 1026.83
1026.52 1025.58 1024.46 1022.12 1020.16 1018.72 1018.07 1017.51 1017.40 1017.25 1017.32 1017.34 1016.39 1015.61 1014.18 1012.77 1012.29 1011.82 1011.15 1010.53 1010.50 1010.36 1010.53 1010.51 1010.88 1010.97 1011.85 1012.71 1013.56 1014.56 1015.25 1015.60 1016.82 1017.94 1018.44 1019.92 1021.06 1022.83 1023.84 1024.35 1024.58 1025.49 1026.60 1027.49
1026.82 1026.36 1025.37 1023.20 1020.63 1018.82 1017.47 1017.13 1017.04 1017.17 1017.29 1017.14 1016.40 1015.22 1014.77 1013.71 1013.05 1012.59 1012.04 1011.80 1011.58 1011.61 1011.89 1012.09 1012.09 1012.42 1013.11 1013.62 1014.67 1015.74 1016.33 1016.66 1018.11 1019.42 1019.93 1021.30 1022.65 1023.78 1024.21 1025.18 1025.72 1026.68 1027.18 1027.73
1027.04 1026.71 1025.60 1024.05 1021.98 1019.14 1017.57 1017.43 1017.40 1017.65 1017.14 1016.82 1016.44 1015.27 1014.53 1013.26 1012.45 1013.16 1013.06 1012.88 1013.09 1013.05 1013.02 1013.30 1013.59 1013.80 1014.46 1015.07 1015.87 1016.87 1017.85 1018.61 1019.54 1020.98 1021.95 1022.73 1023.40 1024.04 1025.24 1026.06 1026.58 1027.06 1027.40 1028.02
1026.75 1026.46 1025.98 1024.60 1022.59 1019.72 1018.15 1017.40 1017.33 1017.50 1017.33 1016.69 1016.77 1016.13 1015.32 1013.94 1013.11 1014.88 1014.77 1014.44 1014.39 1014.68 1014.67 1014.70 1015.18 1015.76 1016.29 1017.21 1017.77 1018.36 1019.31 1020.05 1021.04 1021.93 1022.60 1023.50 1024.35 1025.34 1026.05 1026.44 1027.00 1027.63 1028.01 1028.53
1026.56 1026.00 1025.39 1024.32 1022.83 1019.94 1018.24 1017.64 1017.43 1017.83 1018.24 1017.35 1017.43 1017.19 1016.49 1016.12 1016.71 1016.67 1016.36 1015.91 1015.80 1015.97 1016.14 1016.42 1016.91 1017.52 1018.15 1018.51 1018.81 1019.61 1020.66 1021.58 1022.38 1022.70 1023.60 1024.26 1025.09 1025.80 1026.40 1026.92 1027.41 1028.09 1028.59 1029.70
1025.57 1024.79 1024.16 1023.49 1022.26 1020.16 1018.51 1017.76 1018.10 1018.67 1018.03 1018.23 1018.28 1018.14 1017.70 1017.19 1017.14 1017.21 1017.45 1017.45 1017.47 1017.46 1017.73 1018.01 1018.36 1019.05 1019.75 1020.02 1019.98 1020.93 1021.64 1022.51 1023.11 1023.92 1024.58 1025.49 1026.04 1026.52 1027.22 1027.60 1028.18 1029.03 1029.40 1030.15
1024.88 1023.20 1022.80 1022.05 1020.20 1018.84 1018.62 1018.84 1018.89 1019.24 1019.21 1019.05 1019.13 1018.96 1018.46 1018.06 1017.98 1018.22 1018.61 1018.81 1018.96 1018.90 1019.07 1019.34 1019.48 1020.06 1020.77 1021.12 1021.48 1021.93 1023.01 1023.30 1023.76 1024.53 1025.43 1025.90 1026.59 1027.23 1027.88 1028.36 1028.96 1029.57 1029.89 1030.30
1023.74 1022.57 1022.51 1021.82 1019.46 1018.94 1018.62 1019.12 1019.41 1019.86 1019.93 1019.82 1019.76 1019.66 1019.33 1019.17 1019.23 1019.44 1019.48 1019.62 1019.83 1019.89 1020.02 1020.24 1020.42 1020.92 1021.57 1021.97 1022.40 1022.89 1023.59 1023.97 1024.31 1025.09 1025.96 1026.59 1027.23 1028.13 1028.85 1029.13 1029.64 1030.00 1030.53 1030.74
1023.34 1022.77 1022.07 1021.22 1020.08 1019.58 1019.20 1019.62 1020.12 1020.57 1020.71 1020.79 1020.47 1020.46 1020.45 1020.23 1020.53 1020.73 1020.87 1020.96 1020.97 1020.93 1020.99 1021.12 1021.46 1021.88 1022.40 1022.72 1023.19 1023.76 1024.33 1024.65 1025.23 1026.07 1026.96 1027.70 1028.22 1028.99 1029.65 1029.88 1030.16 1030.20 1030.47 1030.57
1022.12 1021.16 1021.33 1020.37 1019.61 1019.60 1019.70 1020.16 1020.76 1021.08 1021.59 1021.83 1021.74 1021.47 1021.44 1021.52 1021.72 1021.75 1021.78 1021.89 1021.79 1021.78 1021.81 1021.96 1022.41 1022.81 1023.43 1023.83 1024.27 1024.74 1025.26 1025.65 1026.17 1027.12 1027.85 1028.32 1028.91 1029.42 1029.67 1030.02 1030.48 1030.63 1030.72 1031.21
Wind_Speed
4 4 7 11 10 13 13 13 14 14 15 18 20 23 19 17 20 19 17 12 14 18 15 17 18 17 16 14 18 19 19 14 11 10 8 6 6 6 5 4 7 6 6 6
6 6 11 9 10 11 12 15 14 13 10 13 16 26 21 19 24 21 19 17 14 14 8 17 19 18 18 16 16 19 19 17 14 11 8 4 7 5 5 4 6 6 7 7
7 10 9 10 12 14 11 15 14 17 15 12 15 27 23 21 25 22 23 17 16 15 11 7 19 19 18 17 17 19 20 19 16 14 10 8 8 7 4 4 5 6 9 9
7 5 9 12 13 11 11 8 12 14 12 4 7 14 16 20 19 22 25 22 19 16 13 7 16 18 19 18 16 16 18 19 16 17 13 17 9 8 4 5 7 7 10 10
8 9 12 13 9 8 8 10 13 14 12 12 10 8 5 5 9 14 14 17 24 18 17 14 18 17 17 19 16 17 18 19 17 16 16 13 10 7 9 8 11 10 10 10
14 13 13 8 10 12 16 13 15 14 8 6 15 10 6 5 10 13 18 14 22 22 19 17 13 20 18 18 17 18 21 19 17 17 16 15 16 15 12 10 9 7 7 8
15 8 2 1 11 10 6 9 5 5 3 7 7 6 16 24 24 20 19 15 11 14 21 18 17 19 18 19 17 15 18 19 15 16 14 12 14 15 16 14 11 12 9 7
7 9 9 17 13 11 15 0 6 6 3 13 12 9 9 14 12 7 7 11 13 14 8 13 18 18 21 20 20 18 18 16 17 15 12 12 13 9 11 12 11 10 9 8
6 6 22 20 6 2 5 4 6 6 10 7 5 8 10 15 17 20 20 20 15 14 16 14 13 22 18 20 21 21 17 14 14 15 14 14 14 15 14 16 14 10 11 11
4 13 10 10 15 5 4 6 4 2 6 6 5 11 5 18 21 24 22 19 17 16 20 16 15 18 14 12 9 11 16 17 16 18 15 14 14 16 15 15 15 13 12 13
11 5 11 11 4 6 3 3 2 5 4 4 6 6 6 11 14 19 22 20 17 16 16 19 9 8 13 12 13 13 15 19 17 19 18 18 16 17 17 14 13 12 12 10
5 5 7 15 22 11 4 4 8 5 5 6 8 8 2 14 18 19 19 19 18 13 11 10 11 13 14 13 12 14 15 17 17 20 19 19 18 19 18 16 12 12 11 11
7 4 7 9 3 2 5 15 10 13 10 8 6 7 15 15 21 19 16 15 12 7 6 7 8 12 14 13 13 14 14 17 16 19 21 19 18 18 16 15 15 11 12 10
2 5 5 8 15 17 17 22 20 13 5 11 10 17 22 16 22 23 20 11 9 5 6 7 5 12 14 14 14 15 14 15 18 20 18 20 19 17 14 14 14 13 9 10
6 8 8 15 19 19 21 20 18 8 4 6 16 20 16 22 20 16 16 9 4 3 6 10 7 11 14 16 13 13 12 17 15 20 20 19 16 15 14 14 12 11 11 9
5 6 11 16 9 5 13 12 13 4 6 9 18 13 19 22 13 16 15 9 7 8 8 10 13 14 15 16 15 14 15 16 18 18 19 18 16 16 14 12 12 12 11 9
4 5 5 7 13 17 1 3 8 9 6 8 9 15 16 22 13 19 16 10 9 10 9 10 12 15 15 15 15 16 14 18 18 17 17 15 16 14 12 12 12 12 10 8
4 5 3 7 11 2 2 6 5 8 2 5 13 19 20 20 8 18 15 10 10 11 12 12 13 16 15 17 17 16 15 16 16 14 16 15 13 12 12 11 11 9 8 8
10 4 4 4 4 8 3 6 6 3 4 7 14 19 20 22 6 13 18 13 11 13 12 13 13 15 14 15 15 16 15 15 16 14 14 12 12 13 11 11 9 8 9 8
8 9 5 4 5 4 2 8 5 6 4 8 12 15 19 19 15 12 16 12 12 11 10 13 14 14 15 12 13 16 14 13 13 12 13 11 11 11 10 10 9 6 8 8
3 3 7 7 5 9 4 12 2 3 4 10 8 10 14 10 6 8 10 12 10 9 10 10 12 12 11 11 14 15 13 13 11 12 12 11 10 10 9 9 8 8 8 7
7 5 5 4 4 8 3 6 5 3 7 6 6 8 9 10 10 11 11 10 9 9 10 10 11 11 10 9 12 13 13 10 11 12 12 11 9 8 8 9 8 7 7 6
4 6 3 7 6 3 3 3 3 3 6 6 5 6 8 7 9 10 9 10 9 9 8 7 11 12 9 9 10 14 9 11 12 13 11 11 10 9 8 8 7 5 5 4
6 2 3 3 5 4 4 2 2 2 4 6 5 5 6 6 7 7 8 8 8 8 8 7 10 10 9 9 10 11 9 10 12 13 11 9 10 9 7 5 4 4 4 4
5 5 6 6 9 8 5 2 2 3 6 5 6 5 7 6 5 4 4 6 5 6 6 6 8 8 9 9 10 9 8 10 11 11 9 8 7 8 7 6 5 5 4 5
7 8 8 7 4 3 0 4 2 4 3 5 5 4 6 6 4 3 5 5 4 5 5 7 8 9 8 9 9 9 7 9 10 9 7 6 6 6 6 7 6 12 14 15
Wind_Direction
327 323 332 10 337 318 304 295 292 291 290 289 289 289 286 293 288 286 285 288 272 233 195 184 181 179 189 191 169 176 178 191 184 169 141 130 127 113 85 66 66 88 102 102
343 274 351 333 300 301 293 287 287 287 285 282 291 281 282 267 269 263 266 270 273 278 223 179 168 175 189 191 177 173 176 186 191 173 154 131 135 106 111 92 74 73 82 82
316 283 333 324 314 311 308 296 303 300 312 287 294 283 263 252 250 259 262 261 260 257 270 232 172 177 184 192 189 178 177 188 186 169 139 113 95 98 97 111 96 78 82 78
281 274 305 323 308 308 299 305 313 304 312 294 350 289 292 285 274 238 246 249 249 252 249 218 190 186 180 192 194 178 178 189 183 159 150 151 157 152 139 127 105 87 77 78
275 317 312 307 296 320 268 309 304 290 284 294 263 265 269 340 275 281 241 242 238 234 244 239 183 189 191 188 189 188 183 191 178 168 152 155 150 126 120 118 105 92 83 79
261 271 263 253 309 289 271 301 293 269 257 256 253 208 308 238 247 255 254 247 230 225 223 233 188 182 187 190 190 191 185 184 173 152 159 163 140 138 132 132 119 108 97 92
314 328 90 26 312 324 21 318 302 338 189 229 257 243 246 288 282 285 294 296 281 223 218 229 223 178 185 183 188 187 183 172 156 155 156 142 145 142 139 137 131 128 116 105
337 323 335 349 320 289 303 14 286 294 287 289 289 244 245 239 289 312 352 347 340 334 324 241 208 183 182 180 174 179 185 165 158 147 134 126 126 124 122 124 124 117 113 109
310 268 321 299 287 53 337 263 298 270 253 257 238 277 287 28 1 348 339 332 328 325 316 313 282 179 181 180 176 175 166 142 133 122 117 116 119 121 121 116 113 113 114 111
297 296 279 307 323 37 202 320 292 265 300 299 292 295 348 355 338 330 323 317 309 314 306 305 295 180 167 149 127 125 135 128 123 114 115 113 114 112 112 111 111 113 111 106
308 243 293 306 280 318 345 290 298 271 255 281 300 289 26 333 326 322 316 308 303 299 301 292 258 119 109 110 120 124 124 122 118 111 114 114 114 112 109 101 107 108 104 107
334 296 282 282 289 268 120 267 326 269 304 272 263 278 53 349 331 323 316 308 297 297 304 310 126 121 117 111 118 122 122 118 122 117 114 113 115 111 108 104 100 100 104 107
341 278 308 320 19 101 333 315 311 296 272 253 273 285 359 334 334 332 319 311 305 304 345 342 112 111 114 112 111 110 112 119 119 117 119 119 110 110 108 111 108 112 105 111
249 266 222 265 286 309 297 302 308 299 299 314 265 325 323 334 331 331 326 311 314 340 50 53 41 99 101 102 105 109 109 105 118 112 116 110 108 108 110 110 109 104 113 109
347 274 273 270 274 281 282 286 298 308 337 305 311 303 306 332 318 319 314 316 338 19 72 74 64 91 98 96 92 98 104 108 111 109 107 103 102 105 98 99 107 108 106 105
307 283 313 299 281 284 300 303 327 313 330 320 320 319 341 315 317 336 341 346 27 40 59 91 94 89 94 97 101 105 104 104 102 99 101 101 103 97 106 115 113 109 104 106
284 292 339 275 327 314 250 315 328 320 25 316 340 312 323 334 354 358 349 5 36 55 60 79 95 97 97 99 102 96 99 104 98 103 97 101 100 110 117 118 110 107 113 114
291 320 277 286 317 354 273 32 293 303 338 335 331 337 336 331 350 7 8 16 38 49 63 75 84 85 90 95 92 101 96 92 98 96 95 97 106 117 106 100 101 108 108 108
218 267 286 296 290 270 269 358 349 1 316 354 341 340 339 339 330 20 9 31 44 52 54 63 71 76 79 85 92 92 92 93 94 99 114 118 117 109 111 110 113 115 112 104
229 226 271 336 297 292 328 324 342 123 335 29 356 345 343 348 11 9 357 27 46 50 54 70 66 72 78 81 98 95 91 94 104 110 104 101 107 108 107 113 112 99 97 97
216 212 223 244 271 288 321 307 234 23 290 359 352 348 346 3 357 348 2 31 44 49 56 69 80 83 84 87 95 92 96 96 105 101 101 96 99 107 103 95 86 86 90 98
187 168 194 199 240 277 3 336 65 284 323 335 348 347 337 343 8 21 25 35 46 63 69 73 86 84 81 87 96 93 89 94 93 95 94 90 88 91 90 92 90 95 103 102
274 200 204 181 222 229 186 223 335 354 292 326 338 334 333 0 12 20 27 37 40 52 68 78 96 97 93 88 102 107 109 111 108 103 100 97 92 93 92 97 96 96 109 108
246 185 237 32 274 261 245 292 101 344 318 329 333 344 358 30 22 28 26 31 40 50 70 84 93 91 88 83 93 102 113 113 111 105 99 96 95 91 75 73 92 93 85 97
206 127 201 254 277 278 243 169 59 16 31 4 350 37 27 53 39 39 47 48 45 54 61 78 98 102 100 103 100 105 106 109 102 99 97 96 97 101 98 85 99 84 53 98
187 198 194 222 222 167 49 98 70 45 17 5 356 29 38 41 89 74 50 31 50 77 79 89 88 96 99 102 101 105 103 107 112 112 117 120 113 105 104 100 88 101 100 91